• In Hungary
  • List of Countries
  • For 7 days
  • Water Temperature
  • Satellite Maps
  • Weather Map
  • News
  • Weather Widgets
  • user-avatar
    Login

    Hourly Weather Antananarivo

    Today, 23 September, Sunday

    Time Temperature Precipitation Wind Pressure Humidity
    00:00 +15°C° 0 mm 1 mps 659 mmHg 89%
    01:00 +15°C° 0 mm 1 mps 658 mmHg 91%
    02:00 +14°C° 0 mm 1 mps 658 mmHg 92%
    03:00 +14°C° 0 mm 1 mps 657 mmHg 93%
    04:00 +13°C° 0 mm 1 mps 657 mmHg 92%
    05:00 +13°C° 0 mm 1 mps 657 mmHg 92%
    06:00 +13°C° 0 mm 1 mps 657 mmHg 92%
    07:00 +16°C° 0 mm 1 mps 658 mmHg 73%
    08:00 +19°C° 0 mm 2 mps 659 mmHg 54%
    09:00 +23°C° 0 mm 2 mps 660 mmHg 35%
    10:00 +25°C° 0 mm 2 mps 660 mmHg 30%
    11:00 +26°C° 0 mm 3 mps 661 mmHg 25%
    12:00 +28°C° 0 mm 3 mps 661 mmHg 20%
    13:00 +28°C° 0 mm 3 mps 660 mmHg 21%
    14:00 +28°C° 0 mm 3 mps 660 mmHg 23%
    15:00 +29°C° 0 mm 3 mps 660 mmHg 24%
    16:00 +26°C° 0 mm 3 mps 659 mmHg 34%
    17:00 +24°C° 0 mm 3 mps 659 mmHg 45%
    18:00 +21°C° 0 mm 3 mps 659 mmHg 55%
    19:00 +20°C° 0 mm 3 mps 659 mmHg 65%
    20:00 +18°C° 0 mm 3 mps 659 mmHg 75%
    21:00 +17°C° 0 mm 2 mps 659 mmHg 85%
    22:00 +17°C° 0 mm 2 mps 659 mmHg 85%
    23:00 +16°C° 0 mm 2 mps 659 mmHg 85%

    Tomorrow, 24 September, Monday

    Time Temperature Precipitation Wind Pressure Humidity
    00:00 +16°C° 0 mm 2 mps 659 mmHg 85%
    01:00 +15°C° 0 mm 2 mps 659 mmHg 87%
    02:00 +14°C° 0 mm 2 mps 658 mmHg 89%
    03:00 +13°C° 0 mm 1 mps 658 mmHg 91%
    04:00 +13°C° 0 mm 1 mps 658 mmHg 90%
    05:00 +13°C° 0 mm 1 mps 658 mmHg 89%
    06:00 +12°C° 0 mm 2 mps 658 mmHg 87%
    07:00 +15°C° 0 mm 2 mps 659 mmHg 73%
    08:00 +18°C° 0 mm 2 mps 660 mmHg 59%
    09:00 +21°C° 0 mm 3 mps 661 mmHg 45%
    10:00 +24°C° 0 mm 3 mps 661 mmHg 40%
    11:00 +26°C° 0 mm 3 mps 661 mmHg 34%
    12:00 +28°C° 0 mm 3 mps 661 mmHg 29%
    13:00 +28°C° 0 mm 3 mps 660 mmHg 30%
    14:00 +28°C° 0 mm 4 mps 660 mmHg 31%
    15:00 +28°C° 0 mm 4 mps 659 mmHg 33%
    16:00 +26°C° 0 mm 3 mps 659 mmHg 42%
    17:00 +24°C° 0 mm 3 mps 659 mmHg 50%
    18:00 +21°C° 0 mm 3 mps 658 mmHg 59%
    19:00 +19°C° 0 mm 3 mps 659 mmHg 67%
    20:00 +18°C° 0 mm 3 mps 659 mmHg 74%
    21:00 +16°C° 0 mm 2 mps 659 mmHg 82%
    22:00 +16°C° 0 mm 2 mps 659 mmHg 84%
    23:00 +16°C° 0 mm 2 mps 659 mmHg 86%

    Day after tomorrow, 25 September, Tuesday

    Time Temperature Precipitation Wind Pressure Humidity
    00:00 +15°C° 0 mm 2 mps 659 mmHg 87%
    01:00 +15°C° 0 mm 2 mps 658 mmHg 88%
    02:00 +14°C° 0 mm 1 mps 658 mmHg 90%
    03:00 +13°C° 0 mm 1 mps 657 mmHg 91%
    04:00 +13°C° 0 mm 1 mps 658 mmHg 90%
    05:00 +13°C° 0 mm 1 mps 658 mmHg 88%
    06:00 +12°C° 0 mm 1 mps 658 mmHg 87%
    07:00 +15°C° 0 mm 2 mps 659 mmHg 73%
    08:00 +18°C° 0 mm 2 mps 660 mmHg 59%
    09:00 +21°C° 0 mm 3 mps 661 mmHg 46%
    10:00 +24°C° 0 mm 3 mps 661 mmHg 40%
    11:00 +26°C° 0 mm 3 mps 661 mmHg 34%
    12:00 +28°C° 0 mm 4 mps 661 mmHg 28%
    13:00 +28°C° 0 mm 4 mps 660 mmHg 29%
    14:00 +28°C° 0 mm 4 mps 660 mmHg 31%
    15:00 +28°C° 0 mm 4 mps 659 mmHg 32%
    16:00 +26°C° 0 mm 4 mps 659 mmHg 43%
    17:00 +22°C° 0 mm 4 mps 659 mmHg 54%
    18:00 +20°C° 0 mm 4 mps 659 mmHg 65%
    19:00 +19°C° 0 mm 4 mps 659 mmHg 71%
    20:00 +18°C° 0 mm 4 mps 659 mmHg 77%
    21:00 +17°C° 0 mm 4 mps 660 mmHg 83%
    22:00 +17°C° 0 mm 3 mps 660 mmHg 82%
    23:00 +16°C° 0 mm 3 mps 659 mmHg 82%

    26 September, Wednesday

    Time Temperature Precipitation Wind Pressure Humidity
    00:00 +16°C° 0 mm 3 mps 659 mmHg 81%
    01:00 +15°C° 0 mm 2 mps 659 mmHg 84%
    02:00 +14°C° 0 mm 2 mps 658 mmHg 87%
    03:00 +14°C° 0 mm 2 mps 658 mmHg 90%
    04:00 +14°C° 0 mm 2 mps 658 mmHg 89%
    05:00 +14°C° 0 mm 2 mps 658 mmHg 89%
    06:00 +14°C° 0 mm 2 mps 659 mmHg 88%
    07:00 +16°C° 0 mm 2 mps 660 mmHg 76%
    08:00 +18°C° 0 mm 3 mps 661 mmHg 64%
    09:00 +21°C° 0 mm 3 mps 661 mmHg 52%
    10:00 +24°C° 0 mm 3 mps 661 mmHg 45%
    11:00 +26°C° 0 mm 3 mps 661 mmHg 37%
    12:00 +27°C° 0 mm 3 mps 661 mmHg 30%
    13:00 +28°C° 0 mm 3 mps 660 mmHg 30%
    14:00 +28°C° 0 mm 3 mps 660 mmHg 30%
    15:00 +28°C° 0 mm 3 mps 659 mmHg 29%
    16:00 +26°C° 0 mm 3 mps 659 mmHg 39%
    17:00 +23°C° 0 mm 4 mps 659 mmHg 48%
    18:00 +21°C° 0 mm 4 mps 659 mmHg 57%
    19:00 +20°C° 0 mm 3 mps 659 mmHg 67%
    20:00 +18°C° 0 mm 3 mps 659 mmHg 76%
    21:00 +17°C° 0 mm 3 mps 660 mmHg 85%
    22:00 +16°C° 0 mm 2 mps 659 mmHg 86%
    23:00 +16°C° 0 mm 2 mps 659 mmHg 88%

    27 September, Thursday

    Time Temperature Precipitation Wind Pressure Humidity
    00:00 +15°C° 0 mm 1 mps 658 mmHg 89%
    01:00 +14°C° 0 mm 1 mps 658 mmHg 89%
    02:00 +14°C° 0 mm 1 mps 658 mmHg 88%
    03:00 +13°C° 0 mm 1 mps 657 mmHg 88%
    04:00 +13°C° 0 mm 1 mps 658 mmHg 83%
    05:00 +13°C° 0 mm 1 mps 658 mmHg 79%
    06:00 +12°C° 0 mm 1 mps 658 mmHg 75%
    07:00 +16°C° 0 mm 2 mps 659 mmHg 60%
    08:00 +19°C° 0 mm 2 mps 660 mmHg 46%
    09:00 +23°C° 0 mm 2 mps 661 mmHg 32%
    10:00 +25°C° 0 mm 3 mps 661 mmHg 27%
    11:00 +26°C° 0 mm 3 mps 661 mmHg 23%
    12:00 +28°C° 0 mm 3 mps 661 mmHg 19%
    13:00 +28°C° 0 mm 3 mps 660 mmHg 20%
    14:00 +28°C° 0 mm 3 mps 660 mmHg 21%
    15:00 +28°C° 0 mm 4 mps 659 mmHg 23%
    16:00 +26°C° 0 mm 4 mps 659 mmHg 33%
    17:00 +23°C° 0 mm 4 mps 659 mmHg 43%
    18:00 +21°C° 0 mm 4 mps 659 mmHg 53%
    19:00 +19°C° 0 mm 3 mps 659 mmHg 63%
    20:00 +18°C° 0 mm 3 mps 659 mmHg 73%
    21:00 +17°C° 0 mm 3 mps 659 mmHg 83%
    22:00 +16°C° 0 mm 3 mps 659 mmHg 84%
    23:00 +14°C° 0 mm 3 mps 658 mmHg 84%

    28 September, Friday

    Time Temperature Precipitation Wind Pressure Humidity
    00:00 +15°C° 0 mm 2 mps 658 mmHg 85%
    01:00 +14°C° 0 mm 2 mps 658 mmHg 87%
    02:00 +13°C° 0 mm 2 mps 657 mmHg 88%
    03:00 +13°C° 0 mm 2 mps 657 mmHg 89%
    04:00 +13°C° 0 mm 2 mps 657 mmHg 89%
    05:00 +12°C° 0 mm 2 mps 658 mmHg 89%
    06:00 +12°C° 0 mm 2 mps 658 mmHg 89%
    07:00 +15°C° 0 mm 2 mps 659 mmHg 77%
    08:00 +17°C° 0 mm 3 mps 660 mmHg 65%
    09:00 +20°C° 0 mm 4 mps 661 mmHg 53%
    10:00 +21°C° 0 mm 4 mps 660 mmHg 48%
    11:00 +23°C° 0 mm 4 mps 660 mmHg 43%
    12:00 +25°C° 0 mm 4 mps 660 mmHg 38%
    13:00 +26°C° 0 mm 4 mps 660 mmHg 39%
    14:00 +26°C° 0 mm 4 mps 659 mmHg 39%
    15:00 +26°C° 0 mm 5 mps 659 mmHg 40%
    16:00 +23°C° 0 mm 4 mps 659 mmHg 47%
    17:00 +21°C° 0 mm 4 mps 659 mmHg 54%
    18:00 +19°C° 0 mm 4 mps 658 mmHg 61%
    19:00 +18°C° 0 mm 4 mps 659 mmHg 68%
    20:00 +16°C° 0 mm 3 mps 659 mmHg 74%
    21:00 +14°C° 0 mm 3 mps 659 mmHg 81%
    22:00 +14°C° 0 mm 3 mps 659 mmHg 82%
    23:00 +14°C° 0 mm 3 mps 658 mmHg 82%
    Show more